| time (UTC) | temp F | wind direction | speed MPH | gust MPH | rain 1hr in | rain 24hr in | rain mn in | humidity % | barometer mb |
| 20260502163905 | 71 | 353 | 5.0 | 12.0 | 0.00 | 1.82 | 0.00 | 68 | 1018.5 |
| 20260502163405 | 70 | 348 | 4.0 | 13.0 | 0.00 | 1.95 | 0.00 | 66 | 1018.4 |
| 20260502162905 | 70 | 357 | 5.0 | 12.0 | 0.00 | 1.98 | 0.00 | 68 | 1018.5 |
| 20260502150904 | 65 | 8 | 6.0 | 12.0 | 0.00 | 1.99 | 0.00 | 79 | 1018.5 |
| 20260502150404 | 64 | 348 | 6.0 | 13.0 | 0.00 | 1.99 | 0.00 | 80 | 1018.5 |
| 20260502130405 | 57 | 351 | 2.0 | 8.0 | 0.00 | 2.03 | 0.00 | 94 | 1017.0 |
| 20260502122904 | 55 | 337 | 3.0 | 7.0 | 0.00 | 2.03 | 0.00 | 94 | 1016.5 |
| 20260502120904 | 54 | 345 | 2.0 | 8.0 | 0.00 | 2.03 | 0.00 | 94 | 1016.3 |
| 20260502120404 | 54 | 343 | 2.0 | 6.0 | 0.00 | 2.04 | 0.00 | 94 | 1016.3 |
| 20260502115904 | 54 | 340 | 2.0 | 8.0 | 0.00 | 2.04 | 0.00 | 94 | 1016.3 |
| 20260502114904 | 54 | 324 | 1.0 | 8.0 | 0.00 | 2.04 | 0.00 | 94 | 1015.9 |
| 20260502113904 | 54 | 349 | 2.0 | 6.0 | 0.00 | 2.04 | 0.00 | 93 | 1015.9 |
| 20260502112904 | 54 | 305 | 2.0 | 5.0 | 0.00 | 2.04 | 0.00 | 93 | 1015.8 |
| 20260502111905 | 54 | 351 | 4.0 | 7.0 | 0.00 | 2.04 | 0.00 | 93 | 1016.0 |
| 20260502111404 | 54 | 357 | 1.0 | 5.0 | 0.00 | 2.04 | 0.00 | 93 | 1015.9 |
| 20260502110405 | 54 | 352 | 2.0 | 8.0 | 0.00 | 2.04 | 0.00 | 93 | 1015.7 |
| 20260502105404 | 54 | 318 | 2.0 | 6.0 | 0.00 | 2.04 | 0.00 | 92 | 1015.7 |
| 20260502104404 | 54 | 347 | 1.0 | 3.0 | 0.00 | 2.04 | 0.00 | 92 | 1015.4 |
| 20260502102904 | 54 | 350 | 3.0 | 6.0 | 0.00 | 2.04 | 0.00 | 92 | 1015.1 |
| 20260502101904 | 54 | 348 | 2.0 | 5.0 | 0.00 | 2.04 | 0.00 | 92 | 1014.9 |
| 20260502100904 | 55 | 341 | 1.0 | 3.0 | 0.00 | 2.04 | 0.00 | 92 | 1014.7 |
| 20260502071405 | 57 | 356 | 7.0 | 12.0 | 0.00 | 2.04 | 0.00 | 95 | 1013.9 |
| 20260502070905 | 57 | 0 | 6.0 | 13.0 | 0.00 | 2.04 | 0.00 | 95 | 1013.9 |
| 20260502064905 | 57 | 346 | 4.0 | 8.0 | 0.00 | 2.04 | 0.00 | 96 | 1013.5 |
| 20260502063904 | 57 | 339 | 2.0 | 10.0 | 0.00 | 2.05 | 0.00 | 96 | 1013.5 |
| 20260502062404 | 57 | 342 | 5.0 | 7.0 | 0.00 | 2.08 | 0.00 | 96 | 1013.4 |
| 20260502061404 | 57 | 5 | 4.0 | 8.0 | 0.00 | 2.09 | 0.00 | 96 | 1013.3 |
| 20260502060405 | 57 | 354 | 5.0 | 10.0 | 0.00 | 2.09 | 0.00 | 96 | 1013.3 |
| 20260502055904 | 57 | 347 | 4.0 | 9.0 | 0.00 | 2.09 | 0.00 | 96 | 1013.4 |
| 20260502054904 | 57 | 348 | 5.0 | 13.0 | 0.01 | 2.10 | 0.00 | 96 | 1013.4 |
| 20260502054405 | 57 | 358 | 5.0 | 9.0 | 0.01 | 2.10 | 0.00 | 96 | 1013.5 |
| 20260502053405 | 57 | 345 | 6.0 | 12.0 | 0.01 | 2.12 | 0.00 | 96 | 1013.6 |
| 20260502051405 | 57 | 352 | 7.0 | 14.0 | 0.01 | 2.62 | 0.00 | 96 | 1013.6 |
| 20260502044904 | 57 | 358 | 3.0 | 7.0 | 0.00 | 2.61 | 2.61 | 97 | 1013.6 |
| 20260502043904 | 57 | 352 | 5.0 | 10.0 | 0.01 | 2.61 | 2.61 | 97 | 1013.5 |
| 20260502042404 | 57 | 339 | 5.0 | 9.0 | 0.01 | 2.61 | 2.61 | 97 | 1013.5 |
| 20260502041904 | 57 | 355 | 6.0 | 12.0 | 0.02 | 2.61 | 2.61 | 97 | 1013.5 |
| 20260502041405 | 57 | 358 | 5.0 | 10.0 | 0.02 | 2.61 | 2.61 | 97 | 1013.5 |
| 20260502040905 | 57 | 6 | 6.0 | 10.0 | 0.02 | 2.61 | 2.61 | 97 | 1013.6 |
| 20260502034905 | 57 | 336 | 6.0 | 13.0 | 0.03 | 2.61 | 2.61 | 97 | 1013.1 |
| 20260502034404 | 57 | 338 | 7.0 | 15.0 | 0.03 | 2.61 | 2.61 | 97 | 1012.7 |
| 20260502033904 | 58 | 345 | 7.0 | 15.0 | 0.02 | 2.60 | 2.60 | 97 | 1012.6 |
| 20260502032904 | 58 | 345 | 2.0 | 7.0 | 0.02 | 2.62 | 2.60 | 97 | 1012.8 |
| 20260502032404 | 58 | 344 | 3.0 | 7.0 | 0.02 | 2.62 | 2.60 | 97 | 1012.0 |
| 20260502030904 | 58 | 347 | 5.0 | 10.0 | 0.02 | 2.61 | 2.59 | 97 | 1011.9 |
| 20260502030404 | 58 | 356 | 5.0 | 10.0 | 0.03 | 2.61 | 2.59 | 97 | 1011.8 |
| 20260502025904 | 58 | 352 | 5.0 | 9.0 | 0.03 | 2.61 | 2.59 | 97 | 1011.5 |
| 20260502025405 | 58 | 350 | 4.0 | 12.0 | 0.04 | 2.61 | 2.59 | 97 | 1011.4 |
| 20260502023404 | 58 | 346 | 4.0 | 10.0 | 0.04 | 2.60 | 2.58 | 97 | 1011.7 |
| 20260502022404 | 59 | 358 | 5.0 | 9.0 | 0.05 | 2.60 | 2.58 | 97 | 1011.8 |
| 20260502021405 | 59 | 354 | 4.0 | 12.0 | 0.05 | 2.59 | 2.57 | 97 | 1011.9 |
| 20260502020404 | 60 | 329 | 3.0 | 10.0 | 0.05 | 2.58 | 2.56 | 97 | 1011.7 |
| 20260502015904 | 60 | 349 | 3.0 | 7.0 | 0.05 | 2.58 | 2.56 | 97 | 1011.5 |
| 20260502014904 | 60 | 355 | 1.0 | 7.0 | 0.05 | 2.57 | 2.55 | 97 | 1011.6 |
| 20260502014404 | 60 | 338 | 1.0 | 5.0 | 0.05 | 2.58 | 2.55 | 97 | 1011.3 |
| 20260502012404 | 60 | 331 | 3.0 | 7.0 | 0.08 | 2.87 | 2.53 | 97 | 1010.5 |
| 20260502005404 | 59 | 339 | 5.0 | 12.0 | 0.18 | 3.19 | 2.50 | 97 | 1009.2 |
| 20260502004904 | 60 | 345 | 5.0 | 9.0 | 0.20 | 3.23 | 2.50 | 97 | 1009.2 |
| 20260502003904 | 60 | 1 | 6.0 | 14.0 | 0.24 | 3.24 | 2.50 | 97 | 1008.9 |
| 20260502002904 | 60 | 5 | 3.0 | 8.0 | 0.22 | 3.21 | 2.47 | 97 | 1009.3 |
| 20260502001904 | 60 | 332 | 4.0 | 10.0 | 0.18 | 3.16 | 2.42 | 97 | 1009.5 |
| 20260502001404 | 60 | 343 | 5.0 | 12.0 | 0.16 | 3.14 | 2.40 | 97 | 1009.2 |
| 20260502000904 | 60 | 346 | 5.0 | 15.0 | 0.11 | 3.09 | 2.35 | 97 | 1009.2 |
| 20260502000404 | 60 | 338 | 4.0 | 12.0 | 0.09 | 3.07 | 2.33 | 97 | 1009.0 |
| 20260501233405 | 61 | 350 | 6.0 | 12.0 | 0.03 | 2.99 | 2.25 | 97 | 1008.7 |
| 20260501232904 | 61 | 352 | 7.0 | 15.0 | 0.03 | 2.99 | 2.25 | 97 | 1008.2 |
| 20260501231904 | 61 | 348 | 5.0 | 12.0 | 0.02 | 2.98 | 2.24 | 97 | 1008.1 |
| 20260501230905 | 62 | 328 | 5.0 | 12.0 | 0.02 | 2.98 | 2.24 | 97 | 1008.0 |
| 20260501225904 | 62 | 3 | 5.0 | 9.0 | 0.01 | 2.97 | 2.23 | 97 | 1008.5 |
| 20260501222904 | 62 | 7 | 5.0 | 12.0 | 0.02 | 2.96 | 2.22 | 97 | 1008.3 |
| 20260501221904 | 63 | 341 | 4.0 | 9.0 | 0.07 | 2.96 | 2.22 | 97 | 1008.6 |
| 20260501220904 | 63 | 4 | 5.0 | 9.0 | 0.17 | 2.96 | 2.22 | 97 | 1008.5 |
| 20260501220404 | 63 | 6 | 5.0 | 9.0 | 0.21 | 2.96 | 2.22 | 97 | 1009.1 |
| 20260501215404 | 63 | 349 | 5.0 | 8.0 | 0.25 | 2.96 | 2.22 | 97 | 1009.0 |
| 20260501214404 | 63 | 9 | 2.0 | 7.0 | 0.29 | 2.95 | 2.21 | 97 | 1008.7 |
| 20260501213904 | 63 | 335 | 3.0 | 6.0 | 0.30 | 2.95 | 2.21 | 97 | 1008.5 |
| 20260501213403 | 63 | 356 | 3.0 | 6.0 | 0.33 | 2.95 | 2.21 | 97 | 1008.2 |
| 20260501212404 | 63 | 5 | 5.0 | 8.0 | 0.32 | 2.92 | 2.18 | 97 | 1007.9 |
| 20260501211404 | 63 | 1 | 3.0 | 7.0 | 0.27 | 2.84 | 2.10 | 97 | 1007.4 |
| 20260501210904 | 63 | 358 | 6.0 | 12.0 | 0.22 | 2.79 | 2.05 | 97 | 1007.5 |
| 20260501205404 | 64 | 7 | 5.0 | 9.0 | 0.15 | 2.71 | 1.97 | 97 | 1008.2 |
| 20260501204905 | 64 | 11 | 5.0 | 10.0 | 0.15 | 2.69 | 1.95 | 97 | 1008.0 |
| 20260501203904 | 64 | 31 | 3.0 | 8.0 | 0.14 | 2.65 | 1.91 | 97 | 1007.4 |
| 20260501202404 | 64 | 17 | 3.0 | 7.0 | 0.35 | 2.60 | 1.86 | 97 | 1007.1 |
| 20260501201404 | 64 | 25 | 3.0 | 9.0 | 0.36 | 2.57 | 1.83 | 97 | 1006.3 |
| 20260501200904 | 64 | 36 | 7.0 | 12.0 | 0.37 | 2.57 | 1.83 | 97 | 1007.4 |
| 20260501200404 | 64 | 29 | 4.0 | 7.0 | 0.37 | 2.56 | 1.82 | 97 | 1007.4 |
| 20260501195404 | 64 | 334 | 1.0 | 6.0 | 0.39 | 2.56 | 1.82 | 97 | 1007.4 |
| 20260501193404 | 64 | 61 | 6.0 | 12.0 | 0.30 | 2.46 | 1.72 | 97 | 1007.1 |
| 20260501191903 | 64 | 30 | 6.0 | 13.0 | 0.09 | 2.21 | 1.47 | 97 | 1006.2 |
| 20260501191403 | 64 | 27 | 5.0 | 10.0 | 0.09 | 2.21 | 1.47 | 97 | 1006.5 |
| 20260501190404 | 64 | 12 | 6.0 | 10.0 | 0.07 | 2.19 | 1.45 | 97 | 1007.3 |
| 20260501185903 | 64 | 356 | 6.0 | 12.0 | 0.06 | 2.18 | 1.44 | 97 | 1008.7 |
| 20260501185404 | 64 | 306 | 5.0 | 10.0 | 0.05 | 2.17 | 1.43 | 97 | 1008.4 |
| 20260501184904 | 64 | 15 | 1.0 | 8.0 | 0.05 | 2.17 | 1.43 | 97 | 1007.4 |
| 20260501184403 | 64 | 68 | 3.0 | 9.0 | 0.05 | 2.17 | 1.43 | 97 | 1007.2 |
| 20260501183904 | 64 | 36 | 6.0 | 12.0 | 0.07 | 2.17 | 1.43 | 97 | 1007.3 |
| 20260501183404 | 64 | 33 | 6.0 | 12.0 | 0.06 | 2.16 | 1.42 | 97 | 1007.6 |
| 20260501182904 | 64 | 351 | 5.0 | 12.0 | 0.07 | 2.15 | 1.41 | 97 | 1007.7 |
| 20260501180903 | 64 | 29 | 2.0 | 7.0 | 0.04 | 2.12 | 1.38 | 97 | 1007.9 |
| 20260501174404 | 64 | 355 | 5.0 | 10.0 | 0.24 | 2.12 | 1.38 | 97 | 1007.8 |
| 20260501173404 | 64 | 6 | 5.0 | 9.0 | 0.66 | 2.10 | 1.36 | 97 | 1008.2 |